LVL298N LEBL-KMIA

Flight info

Callsign LVL298N
Flight time N/A
Altitude 38000
Route GRAUS DCT POSSY DCT MARIO DCT SURCO DCT RONNY/N0468F370 M601 BLV M190 LASKU/N0473F380 DCT VES DCT KOPAS/M082F380 DCT 43N020W 43N030W 42N040W/M082F400 40N050W 34N060W DCT NUMBR DCT SHEIL M330 MILLE/N0470F400 DCT ZQA VIICE2
Aircraft A332/H-SDE1FGHIJ3J5M1P2RWXYZ/EB1D1

Departure

Time 2026-05-07 10:40
Airport Josep Tarradellas Barcelona-El Prat Airport (LEBL)

Arrival

Time N/A
Airport Miami International Airport (KMIA)
Time Latitude Longitude Altitude Speed Heading
2026-05-07 10:21 41.28898 2.07677 25 ft 0 kts 284°
2026-05-07 10:30 41.28889 2.07725 25 ft 4 kts 284°
2026-05-07 10:30 41.28882 2.07760 27 ft 4 kts 284°
2026-05-07 10:30 41.28876 2.07795 28 ft 4 kts 287°
2026-05-07 10:30 41.28867 2.07828 27 ft 4 kts 295°
2026-05-07 10:31 41.28855 2.07858 27 ft 2 kts 299°
2026-05-07 10:31 41.28854 2.07860 27 ft 0 kts 299°
2026-05-07 10:32 41.28855 2.07859 27 ft 0 kts 307°
2026-05-07 10:33 41.28863 2.07859 26 ft 2 kts 350°
2026-05-07 10:33 41.28887 2.07890 27 ft 8 kts 56°
2026-05-07 10:33 41.28911 2.07958 23 ft 10 kts 66°
2026-05-07 10:33 41.28943 2.08054 25 ft 13 kts 65°
2026-05-07 10:34 41.28987 2.08179 25 ft 16 kts 64°
2026-05-07 10:34 41.29039 2.08330 25 ft 19 kts 66°
2026-05-07 10:34 41.29145 2.08418 26 ft 20 kts 18°
2026-05-07 10:34 41.29232 2.08451 27 ft 11 kts
2026-05-07 10:35 41.29321 2.08407 28 ft 17 kts 336°
2026-05-07 10:35 41.29445 2.08331 21 ft 22 kts 335°
2026-05-07 10:35 41.29560 2.08247 19 ft 12 kts 298°
2026-05-07 10:35 41.29537 2.08126 19 ft 17 kts 244°
2026-05-07 10:36 41.29480 2.07964 19 ft 22 kts 247°
2026-05-07 10:36 41.29411 2.07760 19 ft 27 kts 245°
2026-05-07 10:36 41.29349 2.07568 19 ft 17 kts 253°
2026-05-07 10:36 41.29303 2.07422 20 ft 17 kts 243°
2026-05-07 10:37 41.29312 2.07350 21 ft 8 kts 318°
2026-05-07 10:37 41.29326 2.07290 22 ft 6 kts 257°
2026-05-07 10:37 41.29338 2.07243 22 ft 5 kts 317°
2026-05-07 10:37 41.29348 2.07237 21 ft 0 kts 338°
2026-05-07 10:38 41.29361 2.07230 19 ft 5 kts 338°
2026-05-07 10:38 41.29397 2.07210 19 ft 6 kts 337°
2026-05-07 10:38 41.29442 2.07185 22 ft 9 kts 336°
2026-05-07 10:38 41.29477 2.07177 23 ft 2 kts 28°
2026-05-07 10:39 41.29484 2.07195 25 ft 3 kts 66°
2026-05-07 10:39 41.29516 2.07292 24 ft 30 kts 66°
2026-05-07 10:39 41.29685 2.07782 22 ft 85 kts 65°
2026-05-07 10:39 41.30001 2.08701 27 ft 133 kts 65°
2026-05-07 10:40 41.30438 2.09977 199 ft 162 kts 64°
2026-05-07 10:40 41.30919 2.11345 846 ft 162 kts 67°
2026-05-07 10:40 41.31389 2.12700 1620 ft 161 kts 67°
2026-05-07 10:40 41.31873 2.14057 2182 ft 168 kts 68°
2026-05-07 10:41 41.32382 2.15578 2461 ft 193 kts 68°
2026-05-07 10:41 41.33017 2.17269 2713 ft 219 kts 58°
2026-05-07 10:41 41.34020 2.18903 2930 ft 244 kts 49°
2026-05-07 10:41 41.35173 2.20655 3409 ft 257 kts 49°
2026-05-07 10:42 41.36356 2.22464 4071 ft 261 kts 49°
2026-05-07 10:42 41.37550 2.24309 4776 ft 265 kts 48°
2026-05-07 10:42 41.38760 2.26190 5458 ft 269 kts 48°
2026-05-07 10:42 41.39980 2.28097 6196 ft 273 kts 48°
2026-05-07 10:43 41.41217 2.30033 6905 ft 277 kts 49°
2026-05-07 10:43 41.42476 2.32004 7562 ft 282 kts 48°
2026-05-07 10:43 41.43791 2.33968 8275 ft 286 kts 46°
2026-05-07 10:43 41.45139 2.35934 9029 ft 288 kts 46°
2026-05-07 10:44 41.46505 2.37917 9749 ft 292 kts 46°
2026-05-07 10:44 41.47897 2.39937 10277 ft 302 kts 46°
2026-05-07 10:44 41.49362 2.42065 10571 ft 320 kts 47°
2026-05-07 10:44 41.50935 2.44287 10825 ft 338 kts 43°
2026-05-07 10:45 41.52891 2.46134 11078 ft 354 kts 24°
2026-05-07 10:45 41.55268 2.47117 11519 ft 362 kts 11°
2026-05-07 10:45 41.56920 2.47546 11850 ft 367 kts
2026-05-07 10:45 41.59453 2.48135 12458 ft 372 kts
2026-05-07 10:46 41.62039 2.48423 13056 ft 376 kts 356°
2026-05-07 10:46 41.64622 2.47842 13625 ft 379 kts 340°
2026-05-07 10:46 41.66982 2.46279 14196 ft 380 kts 322°
2026-05-07 10:46 41.68894 2.43861 14796 ft 379 kts 306°
2026-05-07 10:47 41.70198 2.40814 15390 ft 379 kts 289°
2026-05-07 10:47 41.70837 2.37402 15987 ft 379 kts 277°
2026-05-07 10:47 41.71182 2.33905 16598 ft 381 kts 275°
2026-05-07 10:47 41.71487 2.30368 17168 ft 384 kts 275°
2026-05-07 10:48 41.71796 2.26808 17748 ft 387 kts 275°
2026-05-07 10:48 41.72116 2.23216 18301 ft 390 kts 275°
2026-05-07 10:48 41.72442 2.19597 18801 ft 392 kts 275°
2026-05-07 10:48 41.72772 2.15971 19343 ft 393 kts 275°
2026-05-07 10:49 41.73103 2.12329 19854 ft 395 kts 275°
2026-05-07 10:49 41.73435 2.08672 20345 ft 397 kts 274°
2026-05-07 10:49 41.73768 2.04997 20825 ft 399 kts 274°
2026-05-07 10:49 41.74103 2.01303 21315 ft 400 kts 274°
2026-05-07 10:50 41.74436 1.97599 21802 ft 402 kts 274°
2026-05-07 10:50 41.74770 1.93875 22275 ft 403 kts 274°
2026-05-07 10:50 41.75105 1.90141 22739 ft 405 kts 274°
2026-05-07 10:50 41.75440 1.86369 23062 ft 410 kts 274°
2026-05-07 10:51 41.75778 1.82565 23503 ft 412 kts 274°
2026-05-07 10:51 41.76117 1.78748 23901 ft 413 kts 274°
2026-05-07 10:51 41.76456 1.74910 24200 ft 417 kts 274°
2026-05-07 10:51 41.76799 1.71035 24528 ft 420 kts 275°
2026-05-07 10:52 41.77302 1.67166 24898 ft 423 kts 278°
2026-05-07 10:52 41.77923 1.63304 25296 ft 425 kts 279°
2026-05-07 10:52 41.78555 1.59491 25669 ft 426 kts 279°
2026-05-07 10:52 41.79199 1.55607 26036 ft 428 kts 279°
2026-05-07 10:53 41.79842 1.51711 26411 ft 430 kts 279°
2026-05-07 10:53 41.80486 1.47780 26692 ft 433 kts 279°
2026-05-07 10:53 41.81130 1.43832 27053 ft 435 kts 278°
2026-05-07 10:53 41.81777 1.39862 27420 ft 436 kts 278°
2026-05-07 10:54 41.82424 1.35885 27780 ft 438 kts 278°
2026-05-07 10:54 41.83072 1.31884 28128 ft 440 kts 278°
2026-05-07 10:54 41.83720 1.27874 28460 ft 441 kts 278°
2026-05-07 10:54 41.84370 1.23846 28800 ft 443 kts 278°
2026-05-07 10:55 41.85022 1.19795 29121 ft 445 kts 278°
2026-05-07 10:55 41.85673 1.15735 29438 ft 447 kts 278°
2026-05-07 10:55 41.86328 1.11650 29739 ft 450 kts 278°
2026-05-07 10:55 41.86985 1.07532 30007 ft 452 kts 278°
2026-05-07 10:56 41.87644 1.03399 30279 ft 454 kts 278°
2026-05-07 10:56 41.88304 0.99248 30571 ft 455 kts 278°
2026-05-07 10:56 41.88963 0.95100 30957 ft 453 kts 278°
2026-05-07 10:56 41.89617 0.90973 31347 ft 451 kts 277°
2026-05-07 10:57 41.90266 0.86861 31741 ft 450 kts 277°
2026-05-07 10:57 41.90912 0.82753 32116 ft 449 kts 277°
2026-05-07 10:57 41.91556 0.78655 32476 ft 448 kts 277°
2026-05-07 10:57 41.92197 0.74561 32843 ft 447 kts 277°
2026-05-07 10:58 41.92836 0.70473 33155 ft 447 kts 277°
2026-05-07 10:58 41.93471 0.66397 33518 ft 446 kts 277°
2026-05-07 10:58 41.94105 0.62315 33856 ft 445 kts 277°
2026-05-07 10:58 41.94735 0.58254 34166 ft 444 kts 277°
2026-05-07 10:59 41.95363 0.54196 34397 ft 444 kts 277°
2026-05-07 10:59 41.95991 0.50130 34642 ft 444 kts 277°
2026-05-07 10:59 41.96616 0.46068 34875 ft 444 kts 277°
2026-05-07 10:59 41.97246 0.42001 35079 ft 445 kts 278°
2026-05-07 11:00 41.98058 0.37977 35306 ft 449 kts 285°
2026-05-07 11:00 41.99228 0.34061 35507 ft 453 kts 290°
2026-05-07 11:00 42.00568 0.30212 35658 ft 456 kts 292°
2026-05-07 11:00 42.01976 0.26446 35870 ft 457 kts 293°
2026-05-07 11:01 42.03435 0.22651 36089 ft 457 kts 293°
2026-05-07 11:01 42.04899 0.18857 36290 ft 457 kts 293°
2026-05-07 11:01 42.06356 0.15053 36475 ft 457 kts 293°
2026-05-07 11:01 42.07802 0.11242 36690 ft 457 kts 293°
2026-05-07 11:02 42.09236 0.07426 36877 ft 457 kts 292°
2026-05-07 11:02 42.10667 0.03594 37076 ft 458 kts 292°
2026-05-07 11:02 42.12091 -0.00237 37277 ft 458 kts 292°
2026-05-07 11:02 42.13516 -0.04079 37450 ft 459 kts 292°
2026-05-07 11:03 42.14942 -0.07929 37606 ft 459 kts 292°
2026-05-07 11:03 42.16367 -0.11781 37807 ft 459 kts 292°
2026-05-07 11:03 42.17790 -0.15632 37979 ft 460 kts 292°
2026-05-07 11:03 42.19217 -0.19498 37973 ft 461 kts 292°
2026-05-07 11:04 42.22068 -0.27234 37972 ft 460 kts 293°
2026-05-07 11:04 42.24905 -0.34953 37975 ft 459 kts 293°
2026-05-07 11:05 42.27739 -0.42681 37971 ft 459 kts 293°
2026-05-07 11:05 42.30568 -0.50419 37968 ft 459 kts 293°
2026-05-07 11:06 42.33390 -0.58159 37967 ft 459 kts 293°
2026-05-07 11:06 42.36207 -0.65905 37970 ft 459 kts 293°
2026-05-07 11:07 42.39018 -0.73654 37968 ft 459 kts 293°
2026-05-07 11:07 42.41826 -0.81422 37968 ft 460 kts 293°
2026-05-07 11:08 42.44634 -0.89209 37963 ft 461 kts 293°
2026-05-07 11:08 42.47439 -0.97012 37962 ft 461 kts 293°
2026-05-07 11:09 42.50238 -1.04823 37963 ft 461 kts 293°
2026-05-07 11:09 42.53031 -1.12635 37958 ft 461 kts 293°
2026-05-07 11:10 42.55822 -1.20458 37964 ft 461 kts 292°
2026-05-07 11:10 42.58611 -1.28300 37961 ft 462 kts 292°
2026-05-07 11:11 42.61397 -1.36150 37952 ft 462 kts 292°
2026-05-07 11:11 42.64178 -1.44009 37968 ft 461 kts 292°
2026-05-07 11:12 42.66951 -1.51863 37954 ft 461 kts 292°
2026-05-07 11:12 42.69716 -1.59725 37970 ft 462 kts 292°
2026-05-07 11:13 42.72483 -1.67612 37965 ft 462 kts 294°
2026-05-07 11:13 42.75739 -1.75187 37966 ft 464 kts 299°
2026-05-07 11:14 42.79199 -1.82622 37964 ft 465 kts 300°
2026-05-07 11:14 42.82696 -1.90037 37951 ft 465 kts 300°
2026-05-07 11:15 42.86187 -1.97464 37955 ft 466 kts 300°
2026-05-07 11:15 42.89675 -2.04916 37950 ft 466 kts 299°
2026-05-07 11:16 42.93155 -2.12380 37949 ft 466 kts 299°
2026-05-07 11:16 42.96606 -2.19801 37941 ft 466 kts 299°
2026-05-07 11:17 43.00105 -2.27315 37956 ft 466 kts 300°
2026-05-07 11:17 43.03581 -2.34719 37940 ft 465 kts 300°
2026-05-07 11:18 43.07070 -2.42156 37939 ft 465 kts 300°
2026-05-07 11:18 43.10554 -2.49608 37937 ft 464 kts 300°
2026-05-07 11:19 43.14025 -2.57060 37941 ft 465 kts 299°
2026-05-07 11:19 43.17494 -2.64525 37939 ft 464 kts 299°
2026-05-07 11:20 43.20958 -2.72000 37946 ft 465 kts 299°
2026-05-07 11:20 43.24418 -2.79485 37940 ft 465 kts 299°
2026-05-07 11:21 43.27876 -2.86981 37941 ft 465 kts 299°
2026-05-07 11:21 43.30605 -2.94923 37933 ft 458 kts 283°
2026-05-07 11:22 43.32129 -3.03387 37940 ft 456 kts 279°
2026-05-07 11:22 43.33405 -3.11920 37942 ft 456 kts 278°
2026-05-07 11:23 43.34638 -3.20457 37934 ft 456 kts 278°
2026-05-07 11:23 43.35885 -3.28992 37936 ft 456 kts 279°
2026-05-07 11:24 43.37154 -3.37518 37932 ft 455 kts 279°
2026-05-07 11:24 43.38431 -3.45990 37938 ft 456 kts 279°
2026-05-07 11:25 43.39713 -3.54515 37931 ft 456 kts 279°
2026-05-07 11:25 43.40986 -3.63051 37922 ft 456 kts 279°
2026-05-07 11:26 43.42250 -3.71592 37928 ft 456 kts 279°
2026-05-07 11:26 43.43507 -3.80131 37904 ft 455 kts 279°
2026-05-07 11:27 43.44737 -3.88680 37900 ft 455 kts 276°
2026-05-07 11:27 43.45439 -3.97324 37913 ft 454 kts 273°
2026-05-07 11:28 43.45994 -4.05976 37911 ft 454 kts 272°
2026-05-07 11:28 43.46514 -4.14642 37920 ft 454 kts 272°
2026-05-07 11:29 43.47032 -4.23302 37914 ft 454 kts 272°
2026-05-07 11:29 43.47549 -4.31966 37917 ft 454 kts 272°
2026-05-07 11:30 43.48007 -4.40630 37922 ft 454 kts 271°
2026-05-07 11:30 43.48414 -4.49300 37915 ft 454 kts 271°
2026-05-07 11:31 43.48854 -4.57968 37928 ft 454 kts 272°
2026-05-07 11:31 43.49324 -4.66638 37922 ft 454 kts 272°
2026-05-07 11:32 43.50019 -4.79595 37924 ft 454 kts 272°
2026-05-07 11:33 43.50472 -4.88273 37926 ft 454 kts 272°
2026-05-07 11:33 43.50916 -4.96956 37926 ft 454 kts 272°
2026-05-07 11:34 43.51353 -5.05629 37926 ft 454 kts 272°
2026-05-07 11:34 43.51714 -5.12895 37933 ft 454 kts 272°
2026-05-07 11:35 43.52136 -5.21510 37925 ft 454 kts 272°
2026-05-07 11:35 43.52555 -5.30195 37921 ft 454 kts 272°
2026-05-07 11:36 43.52967 -5.38872 37917 ft 454 kts 272°
2026-05-07 11:36 43.53372 -5.47548 37918 ft 453 kts 272°
2026-05-07 11:37 43.53770 -5.56221 37920 ft 453 kts 272°
2026-05-07 11:37 43.54162 -5.64893 37917 ft 453 kts 272°
2026-05-07 11:38 43.54547 -5.73562 37916 ft 453 kts 272°
2026-05-07 11:38 43.54926 -5.82230 37913 ft 453 kts 272°
2026-05-07 11:39 43.55298 -5.90888 37911 ft 452 kts 272°
2026-05-07 11:39 43.55665 -5.99550 37910 ft 452 kts 273°
2026-05-07 11:40 43.56306 -6.08175 37911 ft 453 kts 276°
2026-05-07 11:40 43.57154 -6.16767 37911 ft 451 kts 277°
2026-05-07 11:41 43.57997 -6.25333 37909 ft 450 kts 277°
2026-05-07 11:41 43.58801 -6.33899 37916 ft 450 kts 277°
2026-05-07 11:42 43.59583 -6.42475 37916 ft 450 kts 276°
2026-05-07 11:42 43.60355 -6.51045 37916 ft 450 kts 277°
2026-05-07 11:43 43.61119 -6.59589 37921 ft 448 kts 277°
2026-05-07 11:43 43.61876 -6.68122 37920 ft 448 kts 277°
2026-05-07 11:44 43.62627 -6.76654 37916 ft 448 kts 277°
2026-05-07 11:44 43.63372 -6.85190 37920 ft 448 kts 277°
2026-05-07 11:45 43.64110 -6.93717 37920 ft 447 kts 277°
2026-05-07 11:45 43.64839 -7.02220 37921 ft 446 kts 277°
2026-05-07 11:46 43.65562 -7.10732 37918 ft 446 kts 277°
2026-05-07 11:46 43.66278 -7.19237 37918 ft 446 kts 277°
2026-05-07 11:47 43.66989 -7.27742 37916 ft 445 kts 277°
2026-05-07 11:47 43.67685 -7.36165 37917 ft 444 kts 277°
2026-05-07 11:48 43.68380 -7.44646 37915 ft 444 kts 277°
2026-05-07 11:48 43.69068 -7.53127 37912 ft 444 kts 277°
2026-05-07 11:49 43.69751 -7.61609 37907 ft 444 kts 276°
2026-05-07 11:49 43.70426 -7.70087 37913 ft 443 kts 276°
2026-05-07 11:50 43.71093 -7.78545 37908 ft 443 kts 276°
2026-05-07 11:50 43.71755 -7.87005 37909 ft 443 kts 276°
2026-05-07 11:51 43.72410 -7.95471 37916 ft 443 kts 276°
2026-05-07 11:51 43.73059 -8.03937 37914 ft 443 kts 276°
2026-05-07 11:52 43.73702 -8.12414 37915 ft 443 kts 276°
2026-05-07 11:52 43.74339 -8.20886 37920 ft 443 kts 276°
2026-05-07 11:53 43.74969 -8.29359 37914 ft 443 kts 276°
2026-05-07 11:53 43.75593 -8.37828 37923 ft 442 kts 276°
2026-05-07 11:54 43.76209 -8.46283 37927 ft 441 kts 276°
2026-05-07 11:54 43.76818 -8.54729 37927 ft 441 kts 276°
2026-05-07 11:55 43.77421 -8.63175 37928 ft 441 kts 276°
2026-05-07 11:55 43.78013 -8.71564 37932 ft 441 kts 276°
2026-05-07 11:56 43.78603 -8.80009 37937 ft 440 kts 276°
2026-05-07 11:56 43.79190 -8.88502 37935 ft 440 kts 276°
2026-05-07 11:57 43.79763 -8.96875 37936 ft 440 kts 276°
2026-05-07 11:57 43.80333 -9.05304 37939 ft 440 kts 276°
2026-05-07 11:58 43.80896 -9.13730 37942 ft 439 kts 276°
2026-05-07 11:58 43.81452 -9.22133 37944 ft 438 kts 275°
2026-05-07 11:59 43.82001 -9.30523 37947 ft 438 kts 275°
2026-05-07 11:59 43.82544 -9.38924 37949 ft 438 kts 275°
2026-05-07 12:00 43.83080 -9.47320 37952 ft 438 kts 275°
2026-05-07 12:00 43.83609 -9.55690 37951 ft 436 kts 275°
2026-05-07 12:01 43.84131 -9.64049 37951 ft 436 kts 275°
2026-05-07 12:01 43.84647 -9.72416 37952 ft 436 kts 275°
2026-05-07 12:02 43.85157 -9.80781 37952 ft 436 kts 275°
2026-05-07 12:02 43.85660 -9.89143 37952 ft 435 kts 275°
2026-05-07 12:03 43.86155 -9.97473 37952 ft 433 kts 274°
2026-05-07 12:03 43.86644 -10.05793 37958 ft 433 kts 274°
2026-05-07 12:04 43.87126 -10.14113 37963 ft 433 kts 274°
2026-05-07 12:04 43.87603 -10.22429 37960 ft 433 kts 274°
2026-05-07 12:05 43.88073 -10.30741 37957 ft 432 kts 274°
2026-05-07 12:05 43.88536 -10.39054 37958 ft 432 kts 274°
2026-05-07 12:06 43.88994 -10.47360 37961 ft 432 kts 274°
2026-05-07 12:06 43.89445 -10.55668 37962 ft 432 kts 274°
2026-05-07 12:07 43.89890 -10.63978 37967 ft 433 kts 274°
2026-05-07 12:07 43.90330 -10.72306 37965 ft 433 kts 273°
2026-05-07 12:08 43.90765 -10.80640 37969 ft 433 kts 273°
2026-05-07 12:08 43.91193 -10.88971 37964 ft 434 kts 273°
2026-05-07 12:09 43.91616 -10.97320 37961 ft 434 kts 273°
2026-05-07 12:09 43.92034 -11.05688 37974 ft 435 kts 273°
2026-05-07 12:10 43.92446 -11.14066 37974 ft 436 kts 273°
2026-05-07 12:10 43.92852 -11.22446 37982 ft 435 kts 273°
2026-05-07 12:11 43.93249 -11.30771 37962 ft 435 kts 273°
2026-05-07 12:11 43.93646 -11.39210 37958 ft 436 kts 273°
2026-05-07 12:12 43.94031 -11.47546 37968 ft 436 kts 273°
2026-05-07 12:12 43.94413 -11.55933 37968 ft 436 kts 273°
2026-05-07 12:13 43.94789 -11.64327 37978 ft 436 kts 273°
2026-05-07 12:13 43.95158 -11.72721 37967 ft 436 kts 273°
2026-05-07 12:14 43.95522 -11.81111 37957 ft 436 kts 273°
2026-05-07 12:14 43.95879 -11.89501 37967 ft 435 kts 273°
2026-05-07 12:15 43.96229 -11.97890 37969 ft 435 kts 272°
2026-05-07 12:15 43.96574 -12.06283 37956 ft 435 kts 273°
2026-05-07 12:16 43.96913 -12.14665 37986 ft 435 kts 272°
2026-05-07 12:16 43.97245 -12.23060 37981 ft 436 kts 272°
2026-05-07 12:17 43.97572 -12.31473 37965 ft 436 kts 272°
2026-05-07 12:17 43.97893 -12.39887 37979 ft 436 kts 272°
2026-05-07 12:18 43.98208 -12.48295 37976 ft 436 kts 272°
2026-05-07 12:18 43.98516 -12.56697 37961 ft 436 kts 272°
2026-05-07 12:19 43.98817 -12.65101 37972 ft 436 kts 272°
2026-05-07 12:19 43.99113 -12.73501 37977 ft 436 kts 272°
2026-05-07 12:20 43.99354 -12.80487 37978 ft 436 kts 272°
2026-05-07 12:20 43.99638 -12.88895 37971 ft 436 kts 272°
2026-05-07 12:21 43.99897 -12.97299 37962 ft 436 kts 269°
2026-05-07 12:21 43.99375 -13.05661 37969 ft 435 kts 262°
2026-05-07 12:22 43.98497 -13.13968 37961 ft 435 kts 260°
2026-05-07 12:22 43.97548 -13.22252 37972 ft 434 kts 260°
2026-05-07 12:23 43.96596 -13.30533 37971 ft 434 kts 260°
2026-05-07 12:23 43.95652 -13.38804 37961 ft 434 kts 260°
2026-05-07 12:24 43.94707 -13.47083 37967 ft 434 kts 260°
2026-05-07 12:24 43.93756 -13.55360 37965 ft 435 kts 260°
2026-05-07 12:25 43.92798 -13.63645 37969 ft 435 kts 260°
2026-05-07 12:25 43.91832 -13.71937 37964 ft 435 kts 260°
2026-05-07 12:26 43.90860 -13.80225 37965 ft 435 kts 260°
2026-05-07 12:26 43.89883 -13.88506 37968 ft 436 kts 259°
2026-05-07 12:27 43.88897 -13.96809 37956 ft 437 kts 259°
2026-05-07 12:27 43.87910 -14.05058 37973 ft 437 kts 259°
2026-05-07 12:28 43.86911 -14.13363 37954 ft 437 kts 259°
2026-05-07 12:28 43.85907 -14.21661 37958 ft 437 kts 259°
2026-05-07 12:29 43.84894 -14.29975 37953 ft 438 kts 259°
2026-05-07 12:29 43.83872 -14.38312 37967 ft 439 kts 259°
2026-05-07 12:30 43.82844 -14.46646 37963 ft 439 kts 259°
2026-05-07 12:30 43.81809 -14.54978 37958 ft 439 kts 259°
2026-05-07 12:31 43.80768 -14.63313 37953 ft 441 kts 258°
2026-05-07 12:31 43.79715 -14.71693 37953 ft 442 kts 258°
2026-05-07 12:32 43.78654 -14.80078 37952 ft 442 kts 258°
2026-05-07 12:32 43.77588 -14.88463 37951 ft 442 kts 258°
2026-05-07 12:33 43.75974 -15.01051 37952 ft 444 kts 258°
2026-05-07 12:33 43.74886 -15.09473 37953 ft 445 kts 258°
2026-05-07 12:34 43.73791 -15.17899 37952 ft 445 kts 258°
2026-05-07 12:34 43.72697 -15.26268 37951 ft 445 kts 258°
2026-05-07 12:35 43.71589 -15.34694 37949 ft 445 kts 258°
2026-05-07 12:35 43.70474 -15.43117 37946 ft 445 kts 258°
2026-05-07 12:36 43.69354 -15.51532 37943 ft 445 kts 258°
2026-05-07 12:36 43.68229 -15.59941 37943 ft 445 kts 258°
2026-05-07 12:37 43.67096 -15.68352 37945 ft 446 kts 257°
2026-05-07 12:37 43.65954 -15.76782 37944 ft 447 kts 257°
2026-05-07 12:38 43.64804 -15.85225 37941 ft 447 kts 257°
2026-05-07 12:38 43.63648 -15.93665 37941 ft 447 kts 257°
2026-05-07 12:39 43.62486 -16.02094 37948 ft 447 kts 257°
2026-05-07 12:39 43.61316 -16.10537 37935 ft 448 kts 257°
2026-05-07 12:40 43.60140 -16.18971 37938 ft 448 kts 257°
2026-05-07 12:40 43.58957 -16.27411 37933 ft 448 kts 257°
2026-05-07 12:41 43.57769 -16.35846 37942 ft 448 kts 256°
2026-05-07 12:41 43.56572 -16.44285 37940 ft 449 kts 256°
2026-05-07 12:42 43.55367 -16.52736 37926 ft 449 kts 256°
2026-05-07 12:42 43.54157 -16.61183 37927 ft 449 kts 256°
2026-05-07 12:43 43.52939 -16.69633 37927 ft 449 kts 256°
2026-05-07 12:43 43.51714 -16.78085 37925 ft 450 kts 256°
2026-05-07 12:44 43.50481 -16.86542 37925 ft 451 kts 256°
2026-05-07 12:44 43.49250 -16.94948 37922 ft 451 kts 256°
2026-05-07 12:45 43.48004 -17.03406 37925 ft 451 kts 256°
2026-05-07 12:45 43.46751 -17.11865 37920 ft 452 kts 256°
2026-05-07 12:46 43.45488 -17.20341 37917 ft 452 kts 256°
2026-05-07 12:46 43.44218 -17.28825 37916 ft 452 kts 256°
2026-05-07 12:47 43.42944 -17.37293 37914 ft 452 kts 256°
2026-05-07 12:47 43.41662 -17.45764 37914 ft 453 kts 255°
2026-05-07 12:48 43.40370 -17.54257 37911 ft 454 kts 255°
2026-05-07 12:48 43.39071 -17.62750 37908 ft 454 kts 255°
2026-05-07 12:49 43.37766 -17.71239 37908 ft 454 kts 255°
2026-05-07 12:49 43.36454 -17.79726 37906 ft 455 kts 255°
2026-05-07 12:50 43.35134 -17.88226 37906 ft 456 kts 255°
2026-05-07 12:50 43.33804 -17.96741 37900 ft 456 kts 255°
2026-05-07 12:51 43.32469 -18.05245 37895 ft 456 kts 255°
2026-05-07 12:51 43.31128 -18.13750 37896 ft 456 kts 255°
2026-05-07 12:52 43.29776 -18.22269 37899 ft 457 kts 255°
2026-05-07 12:52 43.28417 -18.30795 37894 ft 457 kts 255°
2026-05-07 12:53 43.27052 -18.39316 37890 ft 457 kts 255°
2026-05-07 12:53 43.25680 -18.47835 37886 ft 458 kts 255°
2026-05-07 12:54 43.24300 -18.56363 37883 ft 458 kts 255°
2026-05-07 12:54 43.22912 -18.64895 37884 ft 458 kts 255°
2026-05-07 12:55 43.21519 -18.73415 37881 ft 458 kts 255°
2026-05-07 12:55 43.20119 -18.81936 37882 ft 458 kts 255°
2026-05-07 12:56 43.18713 -18.90454 37878 ft 458 kts 255°
2026-05-07 12:56 43.17300 -18.98967 37867 ft 458 kts 255°
2026-05-07 12:57 43.15882 -19.07474 37867 ft 458 kts 255°
2026-05-07 12:57 43.14457 -19.15975 37866 ft 458 kts 255°
2026-05-07 12:58 43.13035 -19.24421 37866 ft 459 kts 255°
2026-05-07 12:58 43.11597 -19.32917 37861 ft 458 kts 255°
2026-05-07 12:59 43.10152 -19.41418 37856 ft 458 kts 255°
2026-05-07 12:59 43.08691 -19.49968 37857 ft 459 kts 255°
2026-05-07 13:00 43.07243 -19.58406 37856 ft 459 kts 255°
2026-05-07 13:00 43.05767 -19.66964 37854 ft 459 kts 255°
2026-05-07 13:01 43.04306 -19.75398 37851 ft 459 kts 255°
2026-05-07 13:01 43.02828 -19.83885 37857 ft 459 kts 255°
2026-05-07 13:02 43.01343 -19.92370 37856 ft 459 kts 255°
2026-05-07 13:02 43.00258 -20.00972 37842 ft 462 kts 266°
2026-05-07 13:03 43.00371 -20.09764 37841 ft 464 kts 270°
2026-05-07 13:03 43.00741 -20.18576 37852 ft 465 kts 271°
2026-05-07 13:04 43.01148 -20.27403 37839 ft 466 kts 271°
2026-05-07 13:04 43.01529 -20.36242 37835 ft 466 kts 271°
2026-05-07 13:05 43.01887 -20.45077 37836 ft 466 kts 271°
2026-05-07 13:05 43.02233 -20.53924 37834 ft 467 kts 271°
2026-05-07 13:06 43.02574 -20.62795 37836 ft 468 kts 271°
2026-05-07 13:06 43.02909 -20.71676 37841 ft 468 kts 271°
2026-05-07 13:07 43.03182 -20.79054 37828 ft 468 kts 271°
2026-05-07 13:07 43.03505 -20.87939 37830 ft 468 kts 271°
2026-05-07 13:08 43.03821 -20.96818 37829 ft 468 kts 271°
2026-05-07 13:08 43.04130 -21.05711 37832 ft 468 kts 271°
2026-05-07 13:09 43.04432 -21.14601 37830 ft 469 kts 271°
2026-05-07 13:09 43.04727 -21.23498 37826 ft 468 kts 271°
2026-05-07 13:10 43.05016 -21.32399 37822 ft 468 kts 271°
2026-05-07 13:10 43.05298 -21.41293 37824 ft 469 kts 271°
2026-05-07 13:11 43.05573 -21.50196 37826 ft 468 kts 271°
2026-05-07 13:11 43.05840 -21.59087 37823 ft 468 kts 271°
2026-05-07 13:12 43.06101 -21.67964 37817 ft 467 kts 271°
2026-05-07 13:12 43.06354 -21.76849 37819 ft 468 kts 271°
2026-05-07 13:13 43.06601 -21.85734 37816 ft 468 kts 271°
2026-05-07 13:13 43.06841 -21.94629 37815 ft 468 kts 271°
2026-05-07 13:14 43.07075 -22.03526 37811 ft 467 kts 271°
2026-05-07 13:14 43.07301 -22.12401 37812 ft 467 kts 271°
2026-05-07 13:15 43.07519 -22.21234 37813 ft 467 kts 271°
2026-05-07 13:15 43.07731 -22.30113 37810 ft 467 kts 271°
2026-05-07 13:16 43.07937 -22.39009 37810 ft 468 kts 271°
2026-05-07 13:16 43.08136 -22.47893 37806 ft 467 kts 271°
2026-05-07 13:17 43.08327 -22.56787 37808 ft 468 kts 271°
2026-05-07 13:17 43.08512 -22.65674 37808 ft 467 kts 271°
2026-05-07 13:18 43.08691 -22.74579 37802 ft 469 kts 271°
2026-05-07 13:18 43.08862 -22.83479 37798 ft 467 kts 271°
2026-05-07 13:19 43.09026 -22.92371 37791 ft 468 kts 271°
2026-05-07 13:19 43.09183 -23.01262 37798 ft 468 kts 271°
2026-05-07 13:20 43.09334 -23.10164 37800 ft 468 kts 271°
2026-05-07 13:20 43.09477 -23.19064 37798 ft 468 kts 271°
2026-05-07 13:21 43.09614 -23.27966 37795 ft 469 kts 271°
2026-05-07 13:21 43.09744 -23.36884 37789 ft 469 kts 271°
2026-05-07 13:22 43.09867 -23.45797 37792 ft 469 kts 271°
2026-05-07 13:22 43.09983 -23.54719 37794 ft 469 kts 272°
2026-05-07 13:23 43.10092 -23.63629 37794 ft 468 kts 271°
2026-05-07 13:23 43.10195 -23.72543 37796 ft 468 kts 272°
2026-05-07 13:24 43.10291 -23.81441 37793 ft 468 kts 271°
2026-05-07 13:24 43.10379 -23.90350 37796 ft 468 kts 272°
2026-05-07 13:25 43.10460 -23.99261 37792 ft 469 kts 272°
2026-05-07 13:25 43.10535 -24.08181 37793 ft 469 kts 272°
2026-05-07 13:26 43.10603 -24.17112 37788 ft 469 kts 271°
2026-05-07 13:26 43.10664 -24.26043 37795 ft 469 kts 271°
2026-05-07 13:27 43.10718 -24.34976 37799 ft 469 kts 272°
2026-05-07 13:27 43.10765 -24.43908 37799 ft 470 kts 272°
2026-05-07 13:28 43.10805 -24.52838 37803 ft 469 kts 272°
2026-05-07 13:28 43.10839 -24.61776 37804 ft 470 kts 272°
2026-05-07 13:29 43.10865 -24.70711 37804 ft 469 kts 272°
2026-05-07 13:29 43.10884 -24.79646 37808 ft 469 kts 272°
2026-05-07 13:30 43.10896 -24.88518 37807 ft 469 kts 272°
2026-05-07 13:30 43.10902 -24.97450 37814 ft 470 kts 272°
2026-05-07 13:31 43.10900 -25.06443 37808 ft 469 kts 272°
2026-05-07 13:31 43.10892 -25.15316 37812 ft 470 kts 272°
2026-05-07 13:32 43.10876 -25.24247 37813 ft 470 kts 272°
2026-05-07 13:32 43.10854 -25.33191 37818 ft 470 kts 272°
2026-05-07 13:33 43.10825 -25.42141 37818 ft 470 kts 272°
2026-05-07 13:33 43.10788 -25.51090 37815 ft 470 kts 272°
2026-05-07 13:34 43.10721 -25.64509 37827 ft 470 kts 272°
2026-05-07 13:35 43.10667 -25.73451 37828 ft 470 kts 271°
2026-05-07 13:35 43.10606 -25.82396 37832 ft 470 kts 271°
2026-05-07 13:36 43.10538 -25.91337 37822 ft 470 kts 272°
2026-05-07 13:36 43.10463 -26.00277 37833 ft 470 kts 272°
2026-05-07 13:37 43.10382 -26.09210 37836 ft 469 kts 272°
2026-05-07 13:37 43.10295 -26.18149 37836 ft 470 kts 273°
2026-05-07 13:38 43.10200 -26.27090 37836 ft 470 kts 273°
2026-05-07 13:38 43.10096 -26.36033 37838 ft 470 kts 273°
2026-05-07 13:39 43.09986 -26.44975 37846 ft 470 kts 272°
2026-05-07 13:39 43.09870 -26.53917 37854 ft 470 kts 273°
2026-05-07 13:40 43.09748 -26.62801 37854 ft 470 kts 272°
2026-05-07 13:40 43.09617 -26.71741 37859 ft 470 kts 273°
2026-05-07 13:41 43.09480 -26.80674 37858 ft 469 kts 272°
2026-05-07 13:41 43.09336 -26.89592 37861 ft 469 kts 273°
2026-05-07 13:42 43.09185 -26.98520 37861 ft 469 kts 272°
2026-05-07 13:42 43.09028 -27.07452 37867 ft 470 kts 271°
2026-05-07 13:43 43.08863 -27.16386 37878 ft 469 kts 272°
2026-05-07 13:43 43.08691 -27.25307 37878 ft 469 kts 271°
2026-05-07 13:44 43.08512 -27.34224 37881 ft 469 kts 271°
2026-05-07 13:44 43.08327 -27.43147 37884 ft 469 kts 272°
2026-05-07 13:45 43.08134 -27.52065 37888 ft 469 kts 272°
2026-05-07 13:45 43.07935 -27.60977 37888 ft 469 kts 272°
2026-05-07 13:46 43.07729 -27.69882 37907 ft 468 kts 272°
2026-05-07 13:46 43.07516 -27.78794 37906 ft 469 kts 272°
2026-05-07 13:47 43.07296 -27.87707 37897 ft 469 kts 271°
2026-05-07 13:47 43.07071 -27.96551 37915 ft 468 kts 272°
2026-05-07 13:48 43.06838 -28.05439 37909 ft 468 kts 271°
2026-05-07 13:48 43.06597 -28.14331 37925 ft 468 kts 271°
2026-05-07 13:49 43.06350 -28.23224 37922 ft 468 kts 271°
2026-05-07 13:49 43.06096 -28.32113 37927 ft 467 kts 272°
2026-05-07 13:50 43.05836 -28.40990 37930 ft 467 kts 271°
2026-05-07 13:50 43.05569 -28.49851 37939 ft 467 kts 271°
2026-05-07 13:51 43.05295 -28.58720 37944 ft 467 kts 271°
2026-05-07 13:51 43.05015 -28.67589 37931 ft 467 kts 271°
2026-05-07 13:52 43.04727 -28.76440 37952 ft 465 kts 271°
2026-05-07 13:52 43.04434 -28.85268 37959 ft 465 kts 271°
2026-05-07 13:53 43.04134 -28.94100 37962 ft 465 kts 271°
2026-05-07 13:53 43.03828 -29.02922 37958 ft 465 kts 271°
2026-05-07 13:54 43.03516 -29.11691 37965 ft 464 kts 272°
2026-05-07 13:54 43.03196 -29.20496 37966 ft 464 kts 272°
2026-05-07 13:55 43.02870 -29.29300 37971 ft 464 kts 272°
2026-05-07 13:55 43.02537 -29.38096 37980 ft 464 kts 272°
2026-05-07 13:56 43.02197 -29.46901 37971 ft 464 kts 272°
2026-05-07 13:56 43.01909 -29.54226 37989 ft 464 kts 272°
2026-05-07 13:57 43.01557 -29.63026 37984 ft 464 kts 272°
2026-05-07 13:57 43.01199 -29.71792 37989 ft 461 kts 272°
2026-05-07 13:58 43.00835 -29.80534 37999 ft 460 kts 272°
2026-05-07 13:58 43.00466 -29.89260 37997 ft 459 kts 272°
2026-05-07 13:59 43.00092 -29.97943 38001 ft 457 kts 272°
2026-05-07 13:59 42.99659 -30.06610 38001 ft 458 kts 271°
2026-05-07 14:00 42.99164 -30.15289 38009 ft 458 kts 271°
2026-05-07 14:00 42.98658 -30.23960 38009 ft 458 kts 271°
2026-05-07 14:01 42.98153 -30.32635 38016 ft 459 kts 271°
2026-05-07 14:01 42.97643 -30.41333 38015 ft 459 kts 271°
2026-05-07 14:02 42.97128 -30.50025 38023 ft 459 kts 271°
2026-05-07 14:02 42.96606 -30.58721 38024 ft 460 kts 271°
2026-05-07 14:03 42.96077 -30.67410 38027 ft 458 kts 271°
2026-05-07 14:03 42.95543 -30.76054 38027 ft 456 kts 271°
2026-05-07 14:04 42.95005 -30.84681 38040 ft 456 kts 271°
2026-05-07 14:04 42.94461 -30.93317 38048 ft 457 kts 271°
2026-05-07 14:05 42.93910 -31.01949 38033 ft 456 kts 271°
2026-05-07 14:05 42.93353 -31.10557 38053 ft 455 kts 271°
2026-05-07 14:06 42.92790 -31.19152 38054 ft 455 kts 271°
2026-05-07 14:06 42.92222 -31.27753 38061 ft 455 kts 271°
2026-05-07 14:07 42.91650 -31.36303 38061 ft 456 kts 271°
2026-05-07 14:07 42.91068 -31.44896 38071 ft 455 kts 271°
2026-05-07 14:08 42.90480 -31.53475 38076 ft 454 kts 271°
2026-05-07 14:08 42.89883 -31.62099 38079 ft 454 kts 271°
2026-05-07 14:09 42.89289 -31.70611 38087 ft 454 kts 271°
2026-05-07 14:09 42.88683 -31.79174 38077 ft 453 kts 271°
2026-05-07 14:10 42.88072 -31.87698 38095 ft 451 kts 271°
2026-05-07 14:10 42.87458 -31.96192 38092 ft 450 kts 271°
2026-05-07 14:11 42.86839 -32.04689 38087 ft 450 kts 271°
2026-05-07 14:11 42.86214 -32.13182 38097 ft 450 kts 271°
2026-05-07 14:12 42.85581 -32.21661 38110 ft 449 kts 271°
2026-05-07 14:12 42.84945 -32.30105 38114 ft 447 kts 271°
2026-05-07 14:13 42.84306 -32.38526 38117 ft 447 kts 271°
2026-05-07 14:13 42.83660 -32.46955 38116 ft 447 kts 271°
2026-05-07 14:14 42.83007 -32.55386 38111 ft 447 kts 271°
2026-05-07 14:14 42.82349 -32.63781 38129 ft 445 kts 271°
2026-05-07 14:15 42.81687 -32.72158 38133 ft 445 kts 271°
2026-05-07 14:15 42.81020 -32.80526 38134 ft 445 kts 271°
2026-05-07 14:16 42.80347 -32.88898 38136 ft 445 kts 271°
2026-05-07 14:16 42.79672 -32.97184 38150 ft 440 kts 271°
2026-05-07 14:17 42.78993 -33.05431 38142 ft 437 kts 271°
2026-05-07 14:17 42.78315 -33.13652 38151 ft 437 kts 271°
2026-05-07 14:18 42.77631 -33.21875 38156 ft 437 kts 271°
2026-05-07 14:18 42.76941 -33.30094 38125 ft 437 kts 271°
2026-05-07 14:19 42.76244 -33.38281 38156 ft 434 kts 271°
2026-05-07 14:19 42.75546 -33.46415 38166 ft 433 kts 271°
2026-05-07 14:20 42.74845 -33.54546 38169 ft 433 kts 271°
2026-05-07 14:20 42.74139 -33.62677 38170 ft 433 kts 271°
2026-05-07 14:21 42.73425 -33.70805 38169 ft 432 kts 271°
2026-05-07 14:21 42.72707 -33.78888 38169 ft 429 kts 271°
2026-05-07 14:22 42.71989 -33.86928 38176 ft 428 kts 271°
2026-05-07 14:22 42.71267 -33.94971 38178 ft 429 kts 271°
2026-05-07 14:23 42.70539 -34.03011 38187 ft 429 kts 270°
2026-05-07 14:23 42.69804 -34.11051 38186 ft 429 kts 270°
2026-05-07 14:24 42.69063 -34.19092 38186 ft 429 kts 270°
2026-05-07 14:24 42.68316 -34.27135 38187 ft 429 kts 270°
2026-05-07 14:25 42.67569 -34.35121 38196 ft 429 kts 270°
2026-05-07 14:25 42.66811 -34.43159 38154 ft 429 kts 270°
2026-05-07 14:26 42.66048 -34.51176 38196 ft 426 kts 270°
2026-05-07 14:26 42.65283 -34.59153 38203 ft 425 kts 270°
2026-05-07 14:27 42.64516 -34.67119 38205 ft 426 kts 270°
2026-05-07 14:27 42.63742 -34.75097 38208 ft 426 kts 270°
2026-05-07 14:28 42.62961 -34.83074 38199 ft 425 kts 270°
2026-05-07 14:28 42.62176 -34.91003 38211 ft 422 kts 270°
2026-05-07 14:29 42.61393 -34.98887 38224 ft 421 kts 270°
2026-05-07 14:29 42.60607 -35.06761 38217 ft 421 kts 270°
2026-05-07 14:30 42.59814 -35.14641 38216 ft 421 kts 270°
2026-05-07 14:30 42.59015 -35.22515 38226 ft 421 kts 270°
2026-05-07 14:31 42.58212 -35.30365 38222 ft 420 kts 270°
2026-05-07 14:31 42.57406 -35.38209 38229 ft 420 kts 270°
2026-05-07 14:32 42.56600 -35.45995 38228 ft 420 kts 270°
2026-05-07 14:32 42.55782 -35.53839 38236 ft 420 kts 270°
2026-05-07 14:33 42.54959 -35.61682 38234 ft 420 kts 269°
2026-05-07 14:33 42.54131 -35.69505 38240 ft 418 kts 269°
2026-05-07 14:34 42.53300 -35.77315 38243 ft 418 kts 269°
2026-05-07 14:34 42.52465 -35.85120 38246 ft 419 kts 269°
2026-05-07 14:35 42.51623 -35.92932 38223 ft 419 kts 269°
2026-05-07 14:35 42.50776 -36.00722 38248 ft 416 kts 269°
2026-05-07 14:36 42.49929 -36.08468 38252 ft 415 kts 269°
2026-05-07 14:36 42.49079 -36.16203 38252 ft 415 kts 269°
2026-05-07 14:37 42.48224 -36.23943 38255 ft 415 kts 269°
2026-05-07 14:37 42.46930 -36.35540 38257 ft 414 kts 268°
2026-05-07 14:38 42.46063 -36.43254 38263 ft 414 kts 268°
2026-05-07 14:38 42.45192 -36.50963 38265 ft 414 kts 268°
2026-05-07 14:39 42.44315 -36.58672 38264 ft 414 kts 268°
2026-05-07 14:39 42.43431 -36.66387 38269 ft 414 kts 268°
2026-05-07 14:40 42.42545 -36.74072 38267 ft 412 kts 268°
2026-05-07 14:40 42.41664 -36.81654 38268 ft 410 kts 268°
2026-05-07 14:41 42.40778 -36.89266 38274 ft 410 kts 268°
2026-05-07 14:41 42.39886 -36.96883 38274 ft 410 kts 268°
2026-05-07 14:42 42.38988 -37.04496 38280 ft 410 kts 268°
2026-05-07 14:42 42.38086 -37.12080 38281 ft 407 kts 268°
2026-05-07 14:43 42.37186 -37.19611 38284 ft 405 kts 268°
2026-05-07 14:43 42.36284 -37.27131 38290 ft 405 kts 268°
2026-05-07 14:44 42.35378 -37.34647 38290 ft 405 kts 268°
2026-05-07 14:44 42.34620 -37.40896 38289 ft 405 kts 268°
2026-05-07 14:45 42.33704 -37.48387 38287 ft 402 kts 268°
2026-05-07 14:45 42.32792 -37.55805 38290 ft 399 kts 268°
2026-05-07 14:46 42.31881 -37.63202 38291 ft 399 kts 268°
2026-05-07 14:46 42.30964 -37.70605 38294 ft 399 kts 268°
2026-05-07 14:47 42.30042 -37.78004 38296 ft 400 kts 267°
2026-05-07 14:47 42.29114 -37.85408 38296 ft 400 kts 267°
2026-05-07 14:48 42.28181 -37.92804 38299 ft 400 kts 267°
2026-05-07 14:48 42.27243 -38.00206 38299 ft 400 kts 267°
2026-05-07 14:49 42.26300 -38.07605 38307 ft 400 kts 267°
2026-05-07 14:49 42.25352 -38.15000 38307 ft 400 kts 267°
2026-05-07 14:50 42.24401 -38.22371 38305 ft 397 kts 267°
2026-05-07 14:50 42.23457 -38.29654 38306 ft 396 kts 267°
2026-05-07 14:51 42.22505 -38.36976 38309 ft 396 kts 267°
2026-05-07 14:51 42.21548 -38.44298 38306 ft 396 kts 267°
2026-05-07 14:52 42.20586 -38.51618 38317 ft 396 kts 267°
2026-05-07 14:52 42.19619 -38.58932 38317 ft 396 kts 267°
2026-05-07 14:53 42.18650 -38.66222 38317 ft 395 kts 267°
2026-05-07 14:53 42.17677 -38.73514 38322 ft 395 kts 267°
2026-05-07 14:54 42.16699 -38.80805 38321 ft 395 kts 267°
2026-05-07 14:54 42.15716 -38.88092 38324 ft 395 kts 267°
2026-05-07 14:55 42.14727 -38.95384 38322 ft 396 kts 267°
2026-05-07 14:55 42.13732 -39.02695 38322 ft 397 kts 267°
2026-05-07 14:56 42.12731 -39.10007 38328 ft 397 kts 267°
2026-05-07 14:56 42.11725 -39.17317 38328 ft 397 kts 267°
2026-05-07 14:57 42.10714 -39.24624 38322 ft 397 kts 267°
2026-05-07 14:57 42.09695 -39.31978 38335 ft 403 kts 267°
2026-05-07 14:58 42.08658 -39.39421 38325 ft 405 kts 267°
2026-05-07 14:58 42.07609 -39.46877 38332 ft 405 kts 266°
2026-05-07 14:59 42.06557 -39.54323 38335 ft 405 kts 266°
2026-05-07 14:59 42.05502 -39.61766 38320 ft 405 kts 266°
2026-05-07 15:00 42.04438 -39.69251 38347 ft 409 kts 266°
2026-05-07 15:00 42.03370 -39.76720 38346 ft 410 kts 266°
2026-05-07 15:01 42.02286 -39.84244 38346 ft 410 kts 266°
2026-05-07 15:01 42.01198 -39.91765 38346 ft 410 kts 266°
2026-05-07 15:02 42.00107 -39.99283 38335 ft 410 kts 265°
2026-05-07 15:02 41.98977 -40.06833 38355 ft 413 kts 264°
2026-05-07 15:03 41.97819 -40.14397 38354 ft 413 kts 264°
2026-05-07 15:03 41.96655 -40.21958 38357 ft 413 kts 264°
2026-05-07 15:04 41.95489 -40.29518 38357 ft 413 kts 264°
2026-05-07 15:04 41.94322 -40.37067 38358 ft 413 kts 263°
2026-05-07 15:05 41.93152 -40.44596 38360 ft 411 kts 263°
2026-05-07 15:05 41.91980 -40.52110 38372 ft 411 kts 263°
2026-05-07 15:06 41.90802 -40.59631 38365 ft 412 kts 263°
2026-05-07 15:06 41.89616 -40.67165 38373 ft 413 kts 263°
2026-05-07 15:07 41.88426 -40.74689 38370 ft 411 kts 263°
2026-05-07 15:07 41.87245 -40.82113 38373 ft 409 kts 263°
2026-05-07 15:08 41.86055 -40.89574 38373 ft 409 kts 263°
2026-05-07 15:08 41.84860 -40.97035 38373 ft 409 kts 263°
2026-05-07 15:09 41.83660 -41.04492 38372 ft 409 kts 263°
2026-05-07 15:09 41.82456 -41.11934 38381 ft 408 kts 263°
2026-05-07 15:10 41.81251 -41.19350 38381 ft 407 kts 263°
2026-05-07 15:10 41.80044 -41.26756 38379 ft 407 kts 262°
2026-05-07 15:11 41.78831 -41.34162 38385 ft 407 kts 262°
2026-05-07 15:11 41.77612 -41.41574 38382 ft 408 kts 262°
2026-05-07 15:12 41.76388 -41.48987 38387 ft 408 kts 262°
2026-05-07 15:12 41.75156 -41.56409 38387 ft 408 kts 262°
2026-05-07 15:13 41.73919 -41.63830 38387 ft 408 kts 262°
2026-05-07 15:13 41.72679 -41.71238 38385 ft 408 kts 262°
2026-05-07 15:14 41.71434 -41.78647 38383 ft 408 kts 262°
2026-05-07 15:14 41.70187 -41.86038 38387 ft 407 kts 262°
2026-05-07 15:15 41.68936 -41.93421 38390 ft 407 kts 262°
2026-05-07 15:15 41.67680 -42.00804 38390 ft 407 kts 262°
2026-05-07 15:16 41.66419 -42.08183 38393 ft 407 kts 262°
2026-05-07 15:16 41.65153 -42.15564 38400 ft 407 kts 262°
2026-05-07 15:17 41.63890 -42.22897 38396 ft 407 kts 262°
2026-05-07 15:17 41.62614 -42.30272 38398 ft 407 kts 262°
2026-05-07 15:18 41.61333 -42.37649 38393 ft 408 kts 262°
2026-05-07 15:18 41.60047 -42.45024 38385 ft 408 kts 262°
2026-05-07 15:19 41.58755 -42.52403 38399 ft 408 kts 261°
2026-05-07 15:19 41.57457 -42.59781 38399 ft 408 kts 261°
2026-05-07 15:20 41.56156 -42.67155 38404 ft 408 kts 261°
2026-05-07 15:20 41.54848 -42.74529 38402 ft 408 kts 261°
2026-05-07 15:21 41.53538 -42.81897 38391 ft 408 kts 261°
2026-05-07 15:21 41.52220 -42.89272 38398 ft 408 kts 261°
2026-05-07 15:22 41.50899 -42.96638 38401 ft 408 kts 261°
2026-05-07 15:22 41.49573 -43.04000 38402 ft 408 kts 261°
2026-05-07 15:23 41.48242 -43.11363 38399 ft 408 kts 261°
2026-05-07 15:23 41.46906 -43.18720 38399 ft 408 kts 261°
2026-05-07 15:24 41.45566 -43.26076 38401 ft 409 kts 260°
2026-05-07 15:24 41.44220 -43.33434 38403 ft 409 kts 260°
2026-05-07 15:25 41.42878 -43.40739 38401 ft 409 kts 260°
2026-05-07 15:25 41.41523 -43.48090 38379 ft 408 kts 260°
2026-05-07 15:26 41.40165 -43.55428 38404 ft 408 kts 260°
2026-05-07 15:26 41.38803 -43.62758 38400 ft 408 kts 260°
2026-05-07 15:27 41.37436 -43.70088 38400 ft 408 kts 260°
2026-05-07 15:27 41.36065 -43.77412 38400 ft 408 kts 259°
2026-05-07 15:28 41.34689 -43.84734 38391 ft 408 kts 259°
2026-05-07 15:28 41.33309 -43.92053 38401 ft 408 kts 259°
2026-05-07 15:29 41.31924 -43.99364 38397 ft 408 kts 259°
2026-05-07 15:29 41.30534 -44.06681 38401 ft 408 kts 259°
2026-05-07 15:30 41.29140 -44.13989 38398 ft 408 kts 259°
2026-05-07 15:30 41.27741 -44.21297 38402 ft 408 kts 259°
2026-05-07 15:31 41.26345 -44.28560 38400 ft 408 kts 259°
2026-05-07 15:31 41.24935 -44.35868 38402 ft 408 kts 259°
2026-05-07 15:32 41.23519 -44.43178 38398 ft 408 kts 258°
2026-05-07 15:32 41.22100 -44.50482 38391 ft 409 kts 258°
2026-05-07 15:33 41.20673 -44.57799 38400 ft 410 kts 258°
2026-05-07 15:33 41.19239 -44.65120 38399 ft 410 kts 258°
2026-05-07 15:34 41.17801 -44.72440 38495 ft 409 kts 258°
2026-05-07 15:34 41.17081 -44.76094 38710 ft 410 kts 258°